This is the latest recevied weather packets stored in our database for station/object IU1DOF-3. If no packets are shown the sender has not sent any weather packets the latest 10 day(s).
| Time | Temp. | Humidity | Pressure | Rain* | Wind** | Luminosity | Snow |
|---|---|---|---|---|---|---|---|
| 1777479746 | 16.11° C | 71% | 1014.8 hPa | 0 mm | - | - | - |
| 1777479122 | 16.11° C | 72% | 1014.3 hPa | 0 mm | - | - | - |
| 1777478499 | 16.11° C | 71% | 1014.5 hPa | 0 mm | - | - | - |
| 1777477874 | 16.11° C | 70% | 1014.4 hPa | 0 mm | - | - | - |
| 1777477251 | 16.67° C | 70% | 1014.4 hPa | 0 mm | - | - | - |
| 1777476640 | 16.67° C | 70% | 1014.4 hPa | 0 mm | - | - | - |
| 1777476019 | 16.67° C | 69% | 1014.7 hPa | 0 mm | - | - | - |
| 1777475394 | 16.67° C | 69% | 1014.6 hPa | 0 mm | - | - | - |
| 1777474780 | 17.22° C | 67% | 1014.5 hPa | 0 mm | - | - | - |
| 1777474162 | 17.78° C | 68% | 1014.3 hPa | 0 mm | - | - | - |
| 1777473554 | 17.22° C | 68% | 1014.4 hPa | 0 mm | - | - | - |
| 1777472930 | 17.22° C | 67% | 1014.5 hPa | 0 mm | - | - | - |
| 1777472320 | 17.78° C | 63% | 1014.5 hPa | 0 mm | - | - | - |
| 1777471700 | 18.33° C | 65% | 1014.5 hPa | 0 mm | - | - | - |
| 1777471075 | 18.89° C | 65% | 1014.7 hPa | 0 mm | - | - | - |
| 1777470461 | 18.89° C | 65% | 1014.7 hPa | 0 mm | - | - | - |
| 1777469843 | 19.44° C | 62% | 1014.8 hPa | 0 mm | - | - | - |
| 1777469218 | 18.89° C | 64% | 1014.6 hPa | 0 mm | - | - | - |
| 1777468600 | 19.44° C | 63% | 1014.8 hPa | 0 mm | - | - | - |
| 1777467987 | 18.89° C | 65% | 1015.3 hPa | 0 mm | - | - | - |
| 1777467363 | 18.89° C | 62% | 1015 hPa | 0 mm | - | - | - |
| 1777466738 | 18.89° C | 64% | 1015.2 hPa | 0 mm | - | - | - |
| 1777466114 | 18.33° C | 67% | 1015.2 hPa | 0 mm | - | - | - |
| 1777465490 | 18.33° C | 66% | 1015.1 hPa | 0 mm | - | - | - |
| 1777464880 | 18.33° C | 68% | 1015.4 hPa | 0 mm | - | - | - |
* Rain latest hour (hover to see other rain measurements)
** Current wind speed in m/s (hover to see current wind gust speed)